Year,Month,Day,Hour,Minute,Value (Times are PST for windspeed in km/hr)
2012,12,17,00,00,4.30
2012,12,17,00,01,2.80
2012,12,17,00,02,4.30
2012,12,17,00,03,3.80
2012,12,17,00,04,3.40
2012,12,17,00,05,3.00
2012,12,17,00,06,4.90
2012,12,17,00,07,5.00
2012,12,17,00,08,3.90
2012,12,17,00,09,3.90
2012,12,17,00,10,3.70
2012,12,17,00,11,2.70
2012,12,17,00,12,2.30
2012,12,17,00,13,2.00
2012,12,17,00,14,3.40
2012,12,17,00,15,3.20
2012,12,17,00,16,2.20
2012,12,17,00,17,1.40
2012,12,17,00,18,3.40
2012,12,17,00,19,3.60
2012,12,17,00,20,3.20
2012,12,17,00,21,4.50
2012,12,17,00,22,3.60
2012,12,17,00,23,4.80
2012,12,17,00,24,3.20
2012,12,17,00,25,4.20
2012,12,17,00,26,4.40
2012,12,17,00,27,3.40
2012,12,17,00,28,4.10
2012,12,17,00,29,4.70
2012,12,17,00,30,3.90
2012,12,17,00,31,4.90
2012,12,17,00,32,5.60
2012,12,17,00,33,6.40
2012,12,17,00,34,6.70
2012,12,17,00,35,5.80
2012,12,17,00,36,6.70
2012,12,17,00,37,6.00
2012,12,17,00,38,5.40
2012,12,17,00,39,6.80
2012,12,17,00,40,6.50
2012,12,17,00,41,5.10
2012,12,17,00,42,5.60
2012,12,17,00,43,4.60
2012,12,17,00,44,2.00
2012,12,17,00,45,3.40
2012,12,17,00,46,1.90
2012,12,17,00,47,0.40
2012,12,17,00,48,1.30
2012,12,17,00,49,2.50
2012,12,17,00,50,3.30
2012,12,17,00,51,2.80
2012,12,17,00,52,4.30
2012,12,17,00,53,4.80
2012,12,17,00,54,5.80
2012,12,17,00,55,6.50
2012,12,17,00,56,7.80
2012,12,17,00,57,6.50
2012,12,17,00,58,5.70
2012,12,17,00,59,5.70
2012,12,17,01,00,4.40
2012,12,17,01,01,6.40
2012,12,17,01,02,7.20
2012,12,17,01,03,7.10
2012,12,17,01,04,8.40
2012,12,17,01,05,7.70
2012,12,17,01,06,7.90
2012,12,17,01,07,9.80
2012,12,17,01,08,8.50
2012,12,17,01,09,8.10
2012,12,17,01,10,7.30
2012,12,17,01,11,9.80
2012,12,17,01,12,8.10
2012,12,17,01,13,7.20
2012,12,17,01,14,7.60
2012,12,17,01,15,9.20
2012,12,17,01,16,8.30
2012,12,17,01,17,10.60
2012,12,17,01,18,11.20
2012,12,17,01,19,9.40
2012,12,17,01,20,10.60
2012,12,17,01,21,8.70
2012,12,17,01,22,9.90
2012,12,17,01,23,9.10
2012,12,17,01,24,8.00
2012,12,17,01,25,10.00
2012,12,17,01,26,10.10
2012,12,17,01,27,11.50
2012,12,17,01,28,10.80
2012,12,17,01,29,8.90
2012,12,17,01,30,8.10
2012,12,17,01,31,9.70
2012,12,17,01,32,11.70
2012,12,17,01,33,9.80
2012,12,17,01,34,10.10
2012,12,17,01,35,11.70
2012,12,17,01,36,8.50
2012,12,17,01,37,9.00
2012,12,17,01,38,10.00
2012,12,17,01,39,9.70
2012,12,17,01,40,12.20
2012,12,17,01,41,13.80
2012,12,17,01,42,10.40
2012,12,17,01,43,11.40
2012,12,17,01,44,10.90
2012,12,17,01,45,8.30
2012,12,17,01,46,11.80
2012,12,17,01,47,8.80
2012,12,17,01,48,10.70
2012,12,17,01,49,10.20
2012,12,17,01,50,12.00
2012,12,17,01,51,7.70
2012,12,17,01,52,12.70
2012,12,17,01,53,14.60
2012,12,17,01,54,12.80
2012,12,17,01,55,12.50
2012,12,17,01,56,10.90
2012,12,17,01,57,15.90
2012,12,17,01,58,11.30
2012,12,17,01,59,10.50
2012,12,17,02,00,9.70
2012,12,17,02,01,8.80
2012,12,17,02,02,10.80
2012,12,17,02,03,8.50
2012,12,17,02,04,9.60
2012,12,17,02,05,10.50
2012,12,17,02,06,11.70
2012,12,17,02,07,8.80
2012,12,17,02,08,9.70
2012,12,17,02,09,10.50
2012,12,17,02,10,12.60
2012,12,17,02,11,10.00
2012,12,17,02,12,14.30
2012,12,17,02,13,12.80
2012,12,17,02,14,11.30
2012,12,17,02,15,13.10
2012,12,17,02,16,13.90
2012,12,17,02,17,11.30
2012,12,17,02,18,10.60
2012,12,17,02,19,13.10
2012,12,17,02,20,11.70
2012,12,17,02,21,9.30
2012,12,17,02,22,12.40
2012,12,17,02,23,12.60
2012,12,17,02,24,13.00
2012,12,17,02,25,11.90
2012,12,17,02,26,16.90
2012,12,17,02,27,15.40
2012,12,17,02,28,16.80
2012,12,17,02,29,13.90
2012,12,17,02,30,16.00
2012,12,17,02,31,14.00
2012,12,17,02,32,15.80
2012,12,17,02,33,13.40
2012,12,17,02,34,13.00
2012,12,17,02,35,15.00
2012,12,17,02,36,14.00
2012,12,17,02,37,16.40
2012,12,17,02,38,14.10
2012,12,17,02,39,18.20
2012,12,17,02,40,13.80
2012,12,17,02,41,15.30
2012,12,17,02,42,13.70
2012,12,17,02,43,12.80
2012,12,17,02,44,17.20
2012,12,17,02,45,18.20
2012,12,17,02,46,19.30
2012,12,17,02,47,18.50
2012,12,17,02,48,16.20
2012,12,17,02,49,21.20
2012,12,17,02,50,16.10
2012,12,17,02,51,12.50
2012,12,17,02,52,14.80
2012,12,17,02,53,18.30
2012,12,17,02,54,17.50
2012,12,17,02,55,15.00
2012,12,17,02,56,15.30
2012,12,17,02,57,19.80
2012,12,17,02,58,18.40
2012,12,17,02,59,19.20
2012,12,17,03,00,16.60
2012,12,17,03,01,25.60
2012,12,17,03,02,22.00
2012,12,17,03,03,19.20
2012,12,17,03,04,17.10
2012,12,17,03,05,21.40
2012,12,17,03,06,19.20
2012,12,17,03,07,17.10
2012,12,17,03,08,20.00
2012,12,17,03,09,22.30
2012,12,17,03,10,19.00
2012,12,17,03,11,21.20
2012,12,17,03,12,17.60
2012,12,17,03,13,18.00
2012,12,17,03,14,17.40
2012,12,17,03,15,19.60
2012,12,17,03,16,14.80
2012,12,17,03,17,19.20
2012,12,17,03,18,15.20
2012,12,17,03,19,11.50
2012,12,17,03,20,17.10
2012,12,17,03,21,20.10
2012,12,17,03,22,17.90
2012,12,17,03,23,16.80
2012,12,17,03,24,15.70
2012,12,17,03,25,20.40
2012,12,17,03,26,19.10
2012,12,17,03,27,19.30
2012,12,17,03,28,19.00
2012,12,17,03,29,22.80
2012,12,17,03,30,21.20
2012,12,17,03,31,18.20
2012,12,17,03,32,17.60
2012,12,17,03,33,15.80
2012,12,17,03,34,15.20
2012,12,17,03,35,18.20
2012,12,17,03,36,24.20
2012,12,17,03,37,14.40
2012,12,17,03,38,16.90
2012,12,17,03,39,16.40
2012,12,17,03,40,20.90
2012,12,17,03,41,17.60
2012,12,17,03,42,21.20
2012,12,17,03,43,20.20
2012,12,17,03,44,22.00
2012,12,17,03,45,19.60
2012,12,17,03,46,21.20
2012,12,17,03,47,15.50
2012,12,17,03,48,18.70
2012,12,17,03,49,18.70
2012,12,17,03,50,17.20
2012,12,17,03,51,16.60
2012,12,17,03,52,17.50
2012,12,17,03,53,16.80
2012,12,17,03,54,19.30
2012,12,17,03,55,19.90
2012,12,17,03,56,14.90
2012,12,17,03,57,11.00
2012,12,17,03,58,19.50
2012,12,17,03,59,22.90
2012,12,17,04,00,21.20
2012,12,17,04,01,26.20
2012,12,17,04,02,21.30
2012,12,17,04,03,21.70
2012,12,17,04,04,18.40
2012,12,17,04,05,15.60
2012,12,17,04,06,16.10
2012,12,17,04,07,19.80
2012,12,17,04,08,16.50
2012,12,17,04,09,21.70
2012,12,17,04,10,18.70
2012,12,17,04,11,23.60
2012,12,17,04,12,20.50
2012,12,17,04,13,21.00
2012,12,17,04,14,24.00
2012,12,17,04,15,21.20
2012,12,17,04,16,24.00
2012,12,17,04,17,22.90
2012,12,17,04,18,25.60
2012,12,17,04,19,27.30
2012,12,17,04,20,26.50
2012,12,17,04,21,20.10
2012,12,17,04,22,23.00
2012,12,17,04,23,22.00
2012,12,17,04,24,24.90
2012,12,17,04,25,23.50
2012,12,17,04,26,23.70
2012,12,17,04,27,22.70
2012,12,17,04,28,22.60
2012,12,17,04,29,31.40
2012,12,17,04,30,24.60
2012,12,17,04,31,22.10
2012,12,17,04,32,25.40
2012,12,17,04,33,26.10
2012,12,17,04,34,28.20
2012,12,17,04,35,29.50
2012,12,17,04,36,24.50
2012,12,17,04,37,31.80
2012,12,17,04,38,28.40
2012,12,17,04,39,26.60
2012,12,17,04,40,30.80
2012,12,17,04,41,26.10
2012,12,17,04,42,27.60
2012,12,17,04,43,31.10
2012,12,17,04,44,22.70
2012,12,17,04,45,22.70
2012,12,17,04,46,23.40
2012,12,17,04,47,24.10
2012,12,17,04,48,20.50
2012,12,17,04,49,24.90
2012,12,17,04,50,27.20
2012,12,17,04,51,19.50
2012,12,17,04,52,26.10
2012,12,17,04,53,24.80
2012,12,17,04,54,22.20
2012,12,17,04,55,28.00
2012,12,17,04,56,21.50
2012,12,17,04,57,19.30
2012,12,17,04,58,21.60
2012,12,17,04,59,22.70
2012,12,17,05,00,21.10
2012,12,17,05,01,21.50
2012,12,17,05,02,22.40
2012,12,17,05,03,25.70
2012,12,17,05,04,27.80
2012,12,17,05,05,27.90
2012,12,17,05,06,27.50
2012,12,17,05,07,29.60
2012,12,17,05,08,29.80
2012,12,17,05,09,29.50
2012,12,17,05,10,26.00
2012,12,17,05,11,29.90
2012,12,17,05,12,23.70
2012,12,17,05,13,25.30
2012,12,17,05,14,22.80
2012,12,17,05,15,28.20
2012,12,17,05,16,24.30
2012,12,17,05,17,24.10
2012,12,17,05,18,28.50
2012,12,17,05,19,27.80
2012,12,17,05,20,28.00
2012,12,17,05,21,21.80
2012,12,17,05,22,21.10
2012,12,17,05,23,25.30
2012,12,17,05,24,26.60
2012,12,17,05,25,25.20
2012,12,17,05,26,21.80
2012,12,17,05,27,21.90
2012,12,17,05,28,27.30
2012,12,17,05,29,25.90
2012,12,17,05,30,33.00
2012,12,17,05,31,24.70
2012,12,17,05,32,28.20
2012,12,17,05,33,28.50
2012,12,17,05,34,21.20
2012,12,17,05,35,25.20
2012,12,17,05,36,24.20
2012,12,17,05,37,27.60
2012,12,17,05,38,27.40
2012,12,17,05,39,26.90
2012,12,17,05,40,31.00
2012,12,17,05,41,27.20
2012,12,17,05,42,22.90
2012,12,17,05,43,25.50
2012,12,17,05,44,25.80
2012,12,17,05,45,28.00
2012,12,17,05,46,32.80
2012,12,17,05,47,29.70
2012,12,17,05,48,28.30
2012,12,17,05,49,27.70
2012,12,17,05,50,22.20
2012,12,17,05,51,25.20
2012,12,17,05,52,28.30
2012,12,17,05,53,29.90
2012,12,17,05,54,25.40
2012,12,17,05,55,22.70
2012,12,17,05,56,33.20
2012,12,17,05,57,23.60
2012,12,17,05,58,22.20
2012,12,17,05,59,27.20
2012,12,17,06,00,30.70
2012,12,17,06,01,25.00
2012,12,17,06,02,25.50
2012,12,17,06,03,21.80
2012,12,17,06,04,27.60
2012,12,17,06,05,28.80
2012,12,17,06,06,29.60
2012,12,17,06,07,27.90
2012,12,17,06,08,26.50
2012,12,17,06,09,23.00
2012,12,17,06,10,23.40
2012,12,17,06,11,20.60
2012,12,17,06,12,26.20
2012,12,17,06,13,23.30
2012,12,17,06,14,22.80
2012,12,17,06,15,25.90
2012,12,17,06,16,29.50
2012,12,17,06,17,19.60
2012,12,17,06,18,26.00
2012,12,17,06,19,26.10
2012,12,17,06,20,26.20
2012,12,17,06,21,24.60
2012,12,17,06,22,21.90
2012,12,17,06,23,23.40
2012,12,17,06,24,19.70
2012,12,17,06,25,27.30
2012,12,17,06,26,21.70
2012,12,17,06,27,15.70
2012,12,17,06,28,21.40
2012,12,17,06,29,18.90
2012,12,17,06,30,18.70
2012,12,17,06,31,20.60
2012,12,17,06,32,19.40
2012,12,17,06,33,20.50
2012,12,17,06,34,19.00
2012,12,17,06,35,24.10
2012,12,17,06,36,20.60
2012,12,17,06,37,21.80
2012,12,17,06,38,14.70
2012,12,17,06,39,19.70
2012,12,17,06,40,17.90
2012,12,17,06,41,17.20
2012,12,17,06,42,19.60
2012,12,17,06,43,16.50
2012,12,17,06,44,15.20
2012,12,17,06,45,11.00
2012,12,17,06,46,12.70
2012,12,17,06,47,14.10
2012,12,17,06,48,17.10
2012,12,17,06,49,15.40
2012,12,17,06,50,15.20
2012,12,17,06,51,14.80
2012,12,17,06,52,13.70
2012,12,17,06,53,14.20
2012,12,17,06,54,13.70
2012,12,17,06,55,11.80
2012,12,17,06,56,10.00
2012,12,17,06,57,12.90
2012,12,17,06,58,16.50
2012,12,17,06,59,15.90
2012,12,17,07,00,17.10
2012,12,17,07,01,15.40
2012,12,17,07,02,16.50
2012,12,17,07,03,16.70
2012,12,17,07,04,13.40
2012,12,17,07,05,13.00
2012,12,17,07,06,18.10
2012,12,17,07,07,21.10
2012,12,17,07,08,17.90
2012,12,17,07,09,12.10
2012,12,17,07,10,13.60
2012,12,17,07,11,14.00
2012,12,17,07,12,13.00
2012,12,17,07,13,13.60
2012,12,17,07,14,14.60
2012,12,17,07,15,15.00
2012,12,17,07,16,11.40
2012,12,17,07,17,17.40
2012,12,17,07,18,13.80
2012,12,17,07,19,15.30
2012,12,17,07,20,12.60
2012,12,17,07,21,14.70
2012,12,17,07,22,14.20
2012,12,17,07,23,12.60
2012,12,17,07,24,14.10
2012,12,17,07,25,13.40
2012,12,17,07,26,14.70
2012,12,17,07,27,13.80
2012,12,17,07,28,13.50
2012,12,17,07,29,15.10
2012,12,17,07,30,12.50
2012,12,17,07,31,13.90
2012,12,17,07,32,11.00
2012,12,17,07,33,10.10
2012,12,17,07,34,10.20
2012,12,17,07,35,10.50
2012,12,17,07,36,12.60
2012,12,17,07,37,12.30
2012,12,17,07,38,10.50
2012,12,17,07,39,8.90
2012,12,17,07,40,8.30
2012,12,17,07,41,8.80
2012,12,17,07,42,7.30
2012,12,17,07,43,7.30
2012,12,17,07,44,8.60
2012,12,17,07,45,8.40
2012,12,17,07,46,9.10
2012,12,17,07,47,11.30
2012,12,17,07,48,10.50
2012,12,17,07,49,9.80
2012,12,17,07,50,9.60
2012,12,17,07,51,11.50
2012,12,17,07,52,8.40
2012,12,17,07,53,8.60
2012,12,17,07,54,9.40
2012,12,17,07,55,9.20
2012,12,17,07,56,7.70
2012,12,17,07,57,7.80
2012,12,17,07,58,9.70
2012,12,17,07,59,9.20
2012,12,17,08,00,8.20
2012,12,17,08,01,8.90
2012,12,17,08,02,6.10
2012,12,17,08,03,6.20
2012,12,17,08,04,6.80
2012,12,17,08,05,7.10
2012,12,17,08,06,6.40
2012,12,17,08,07,7.40
2012,12,17,08,08,9.10
2012,12,17,08,09,9.60
2012,12,17,08,10,8.50
2012,12,17,08,11,9.60
2012,12,17,08,12,10.20
2012,12,17,08,13,12.50
2012,12,17,08,14,11.50
2012,12,17,08,15,12.60
2012,12,17,08,16,10.80
2012,12,17,08,17,12.70
2012,12,17,08,18,11.80
2012,12,17,08,19,14.00
2012,12,17,08,20,13.00
2012,12,17,08,21,9.50
2012,12,17,08,22,11.80
2012,12,17,08,23,12.40
2012,12,17,08,24,9.30
2012,12,17,08,25,11.40
2012,12,17,08,26,11.50
2012,12,17,08,27,12.30
2012,12,17,08,28,14.40
2012,12,17,08,29,14.10
2012,12,17,08,30,12.50
2012,12,17,08,31,12.20
2012,12,17,08,32,12.30
2012,12,17,08,33,12.40
2012,12,17,08,34,11.40
2012,12,17,08,35,12.10
2012,12,17,08,36,12.10
2012,12,17,08,37,12.90
2012,12,17,08,38,14.80
2012,12,17,08,39,13.80
2012,12,17,08,40,12.10
2012,12,17,08,41,14.40
2012,12,17,08,42,11.80
2012,12,17,08,43,13.00
2012,12,17,08,44,13.40
2012,12,17,08,45,10.90
2012,12,17,08,46,10.90
2012,12,17,08,47,11.30
2012,12,17,08,48,10.90
2012,12,17,08,49,10.80
2012,12,17,08,50,11.10
2012,12,17,08,51,8.70
2012,12,17,08,52,9.30
2012,12,17,08,53,11.80
2012,12,17,08,54,11.80
2012,12,17,08,55,8.80
2012,12,17,08,56,10.60
2012,12,17,08,57,9.60
2012,12,17,08,58,8.80
2012,12,17,08,59,9.80
2012,12,17,09,00,9.30
2012,12,17,09,01,8.70
2012,12,17,09,02,10.10
2012,12,17,09,03,10.10
2012,12,17,09,04,10.60
2012,12,17,09,05,8.80
2012,12,17,09,06,9.60
2012,12,17,09,07,10.10
2012,12,17,09,08,11.20
2012,12,17,09,09,10.30
2012,12,17,09,10,10.50
2012,12,17,09,11,9.00
2012,12,17,09,12,9.70
2012,12,17,09,13,11.30
2012,12,17,09,14,9.10
2012,12,17,09,15,9.10
2012,12,17,09,16,11.00
2012,12,17,09,17,10.70
2012,12,17,09,18,8.50
2012,12,17,09,19,8.60
2012,12,17,09,20,9.60
2012,12,17,09,21,8.20
2012,12,17,09,22,9.60
2012,12,17,09,23,9.40
2012,12,17,09,24,10.30
2012,12,17,09,25,8.70
2012,12,17,09,26,8.00
2012,12,17,09,27,7.80
2012,12,17,09,28,10.90
2012,12,17,09,29,7.30
2012,12,17,09,30,4.80
2012,12,17,09,31,6.30
2012,12,17,09,32,5.70
2012,12,17,09,33,5.10
2012,12,17,09,34,6.20
2012,12,17,09,35,2.90
2012,12,17,09,36,5.50
2012,12,17,09,37,5.10
2012,12,17,09,38,6.90
2012,12,17,09,39,5.90
2012,12,17,09,40,6.00
2012,12,17,09,41,2.20
2012,12,17,09,42,1.80
2012,12,17,09,43,4.00
2012,12,17,09,44,4.40
2012,12,17,09,45,4.70
2012,12,17,09,46,5.00
2012,12,17,09,47,5.80
2012,12,17,09,48,5.70
2012,12,17,09,49,6.50
2012,12,17,09,50,5.20
2012,12,17,09,51,6.20
2012,12,17,09,52,7.20
2012,12,17,09,53,7.60
2012,12,17,09,54,6.60
2012,12,17,09,55,7.30
2012,12,17,09,56,8.00
2012,12,17,09,57,7.90
2012,12,17,09,58,8.00
2012,12,17,09,59,8.10
2012,12,17,10,00,7.70
2012,12,17,10,01,6.50
2012,12,17,10,02,4.70
2012,12,17,10,03,2.90
2012,12,17,10,04,4.80
2012,12,17,10,05,5.10
2012,12,17,10,06,7.00
2012,12,17,10,07,8.00
2012,12,17,10,08,9.00
2012,12,17,10,09,10.70
2012,12,17,10,10,8.50
2012,12,17,10,11,10.30
2012,12,17,10,12,8.90
2012,12,17,10,13,9.50
2012,12,17,10,14,7.60
2012,12,17,10,15,7.30
2012,12,17,10,16,6.70
2012,12,17,10,17,6.50
2012,12,17,10,18,5.70
2012,12,17,10,19,5.80
2012,12,17,10,20,3.90
2012,12,17,10,21,3.50
2012,12,17,10,22,5.30
2012,12,17,10,23,3.80
2012,12,17,10,24,3.50
2012,12,17,10,25,2.70
2012,12,17,10,26,3.00
2012,12,17,10,27,3.90
2012,12,17,10,28,3.70
2012,12,17,10,29,3.10
2012,12,17,10,30,4.30
2012,12,17,10,31,4.20
2012,12,17,10,32,4.70
2012,12,17,10,33,5.30
2012,12,17,10,34,5.60
2012,12,17,10,35,5.40
2012,12,17,10,36,5.40
2012,12,17,10,37,4.50
2012,12,17,10,38,4.30
2012,12,17,10,39,4.20
2012,12,17,10,40,4.20
2012,12,17,10,41,3.80
2012,12,17,10,42,4.50
2012,12,17,10,43,5.80
2012,12,17,10,44,6.90
2012,12,17,10,45,6.00
2012,12,17,10,46,3.20
2012,12,17,10,47,1.60
2012,12,17,10,48,4.10
2012,12,17,10,49,4.90
2012,12,17,10,50,4.30
2012,12,17,10,51,3.50
2012,12,17,10,52,5.00
2012,12,17,10,53,3.90
2012,12,17,10,54,4.70
2012,12,17,10,55,7.20
2012,12,17,10,56,5.50
2012,12,17,10,57,5.70
2012,12,17,10,58,4.50
2012,12,17,10,59,5.30
2012,12,17,11,00,3.90
2012,12,17,11,01,4.70
2012,12,17,11,02,4.30
2012,12,17,11,03,3.50
2012,12,17,11,04,3.80
2012,12,17,11,05,4.10
2012,12,17,11,06,4.90
2012,12,17,11,07,6.10
2012,12,17,11,08,6.10
2012,12,17,11,09,5.50
2012,12,17,11,10,4.80
2012,12,17,11,11,6.90
2012,12,17,11,12,7.10
2012,12,17,11,13,7.20
2012,12,17,11,14,4.50
2012,12,17,11,15,2.70
2012,12,17,11,16,4.30
2012,12,17,11,17,4.60
2012,12,17,11,18,5.80
2012,12,17,11,19,7.80
2012,12,17,11,20,9.10
2012,12,17,11,21,6.60
2012,12,17,11,22,6.40
2012,12,17,11,23,6.10
2012,12,17,11,24,6.00
2012,12,17,11,25,5.10
2012,12,17,11,26,5.00
2012,12,17,11,27,4.70
2012,12,17,11,28,8.20
2012,12,17,11,29,8.10
2012,12,17,11,30,9.00
2012,12,17,11,31,9.00
2012,12,17,11,32,8.00
2012,12,17,11,33,8.80
2012,12,17,11,34,7.20
2012,12,17,11,35,7.30
2012,12,17,11,36,5.10
2012,12,17,11,37,5.60
2012,12,17,11,38,8.20
2012,12,17,11,39,7.00
2012,12,17,11,40,7.40
2012,12,17,11,41,11.80
2012,12,17,11,42,9.40
2012,12,17,11,43,10.80
2012,12,17,11,44,11.20
2012,12,17,11,45,12.10
2012,12,17,11,46,10.70
2012,12,17,11,47,8.90
2012,12,17,11,48,10.90
2012,12,17,11,49,8.10
2012,12,17,11,50,5.20
2012,12,17,11,51,6.20
2012,12,17,11,52,6.40
2012,12,17,11,53,5.60
2012,12,17,11,54,8.40
2012,12,17,11,55,5.40
2012,12,17,11,56,5.10
2012,12,17,11,57,3.40
2012,12,17,11,58,4.80
2012,12,17,11,59,3.90
2012,12,17,12,00,4.20
2012,12,17,12,01,4.20
2012,12,17,12,02,2.70
2012,12,17,12,03,4.00
2012,12,17,12,04,6.50
2012,12,17,12,05,6.40
2012,12,17,12,06,6.40
2012,12,17,12,07,6.40
2012,12,17,12,08,6.80
2012,12,17,12,09,6.20
2012,12,17,12,10,5.60
2012,12,17,12,11,4.80
2012,12,17,12,12,3.50
2012,12,17,12,13,5.40
2012,12,17,12,14,4.50
2012,12,17,12,15,4.70
2012,12,17,12,16,6.00
2012,12,17,12,17,5.30
2012,12,17,12,18,7.70
2012,12,17,12,19,7.80
2012,12,17,12,20,7.70
2012,12,17,12,21,7.60
2012,12,17,12,22,6.10
2012,12,17,12,23,5.80
2012,12,17,12,24,2.70
2012,12,17,12,25,4.30
2012,12,17,12,26,5.50
2012,12,17,12,27,5.80
2012,12,17,12,28,5.10
2012,12,17,12,29,4.10
2012,12,17,12,30,2.50
2012,12,17,12,31,3.20
2012,12,17,12,32,1.60
2012,12,17,12,33,0.10
2012,12,17,12,34,0.00
2012,12,17,12,35,0.00
2012,12,17,12,36,0.10
2012,12,17,12,37,0.00
2012,12,17,12,38,0.00
2012,12,17,12,39,0.80
2012,12,17,12,40,2.20
2012,12,17,12,41,3.00
2012,12,17,12,42,3.50
2012,12,17,12,43,2.80
2012,12,17,12,44,2.40
2012,12,17,12,45,2.10
2012,12,17,12,46,3.00
2012,12,17,12,47,2.30
2012,12,17,12,48,0.70
2012,12,17,12,49,0.00
2012,12,17,12,50,0.00
2012,12,17,12,51,0.00
2012,12,17,12,52,0.80
2012,12,17,12,53,1.20
2012,12,17,12,54,0.20
2012,12,17,12,55,0.10
2012,12,17,12,56,1.40
2012,12,17,12,57,3.00
2012,12,17,12,58,3.20
2012,12,17,12,59,3.70
2012,12,17,13,00,3.00
2012,12,17,13,01,2.40
2012,12,17,13,02,1.60
2012,12,17,13,03,0.40
2012,12,17,13,04,0.00
2012,12,17,13,05,0.00
2012,12,17,13,06,0.00
2012,12,17,13,07,0.10
2012,12,17,13,08,0.00
2012,12,17,13,09,0.00
2012,12,17,13,10,0.20
2012,12,17,13,11,0.80
2012,12,17,13,12,0.40
2012,12,17,13,13,0.00
2012,12,17,13,14,0.00
2012,12,17,13,15,0.00
2012,12,17,13,16,0.50
2012,12,17,13,17,0.10
2012,12,17,13,18,1.10
2012,12,17,13,19,0.40
2012,12,17,13,20,0.00
2012,12,17,13,21,2.10
2012,12,17,13,22,2.80
2012,12,17,13,23,4.50
2012,12,17,13,24,7.30
2012,12,17,13,25,4.30
2012,12,17,13,26,1.00
2012,12,17,13,27,3.40
2012,12,17,13,28,4.00
2012,12,17,13,29,4.10
2012,12,17,13,30,1.50
2012,12,17,13,31,0.00
2012,12,17,13,32,1.30
2012,12,17,13,33,3.10
2012,12,17,13,34,2.90
2012,12,17,13,35,3.20
2012,12,17,13,36,4.40
2012,12,17,13,37,4.90
2012,12,17,13,38,5.60
2012,12,17,13,39,4.70
2012,12,17,13,40,3.50
2012,12,17,13,41,3.50
2012,12,17,13,42,3.20
2012,12,17,13,43,3.40
2012,12,17,13,44,4.00
2012,12,17,13,45,6.40
2012,12,17,13,46,7.10
2012,12,17,13,47,6.20
2012,12,17,13,48,4.80
2012,12,17,13,49,3.80
2012,12,17,13,50,5.00
2012,12,17,13,51,4.10
2012,12,17,13,52,4.70
2012,12,17,13,53,7.50
2012,12,17,13,54,5.90
2012,12,17,13,55,5.50
2012,12,17,13,56,6.80
2012,12,17,13,57,7.60
2012,12,17,13,58,7.40
2012,12,17,13,59,6.20
2012,12,17,14,00,8.90
2012,12,17,14,01,8.50
2012,12,17,14,02,13.80
2012,12,17,14,03,10.90
2012,12,17,14,04,11.90
2012,12,17,14,05,17.40
2012,12,17,14,06,17.60
2012,12,17,14,07,15.90
2012,12,17,14,08,12.50
2012,12,17,14,09,9.30
2012,12,17,14,10,10.30
2012,12,17,14,11,9.40
2012,12,17,14,12,10.90
2012,12,17,14,13,10.90
2012,12,17,14,14,7.70
2012,12,17,14,15,6.50
2012,12,17,14,16,8.70
2012,12,17,14,17,6.00
2012,12,17,14,18,4.70
2012,12,17,14,19,4.40
2012,12,17,14,20,4.20
2012,12,17,14,21,6.90
2012,12,17,14,22,5.80
2012,12,17,14,23,4.40
2012,12,17,14,24,6.70
2012,12,17,14,25,4.90
2012,12,17,14,26,5.60
2012,12,17,14,27,5.30
2012,12,17,14,28,8.10
2012,12,17,14,29,9.10
2012,12,17,14,30,8.30
2012,12,17,14,31,8.00
2012,12,17,14,32,8.40
2012,12,17,14,33,7.70
2012,12,17,14,34,5.70
2012,12,17,14,35,6.20
2012,12,17,14,36,6.10
2012,12,17,14,37,7.40
2012,12,17,14,38,7.30
2012,12,17,14,39,6.00
2012,12,17,14,40,8.50
2012,12,17,14,41,8.30
2012,12,17,14,42,5.70
2012,12,17,14,43,9.50
2012,12,17,14,44,11.00
2012,12,17,14,45,9.30
2012,12,17,14,46,10.90
2012,12,17,14,47,7.00
2012,12,17,14,48,6.70
2012,12,17,14,49,8.50
2012,12,17,14,50,7.70
2012,12,17,14,51,5.20
2012,12,17,14,52,9.60
2012,12,17,14,53,10.50
2012,12,17,14,54,11.70
2012,12,17,14,55,8.50
2012,12,17,14,56,8.50
2012,12,17,14,57,9.30
2012,12,17,14,58,17.90
2012,12,17,14,59,15.50
2012,12,17,15,00,9.90
2012,12,17,15,01,8.90
2012,12,17,15,02,11.30
2012,12,17,15,03,11.90
2012,12,17,15,04,10.60
2012,12,17,15,05,10.00
2012,12,17,15,06,9.80
2012,12,17,15,07,10.00
2012,12,17,15,08,13.10
2012,12,17,15,09,8.70
2012,12,17,15,10,13.80
2012,12,17,15,11,12.40
2012,12,17,15,12,13.00
2012,12,17,15,13,17.60
2012,12,17,15,14,16.60
2012,12,17,15,15,15.10
2012,12,17,15,16,11.80
2012,12,17,15,17,8.50
2012,12,17,15,18,11.00
2012,12,17,15,19,15.30
2012,12,17,15,20,17.40
2012,12,17,15,21,18.30
2012,12,17,15,22,24.80
2012,12,17,15,23,22.30
2012,12,17,15,24,15.80
2012,12,17,15,25,10.70
2012,12,17,15,26,12.20
2012,12,17,15,27,8.10
2012,12,17,15,28,10.10
2012,12,17,15,29,7.10
2012,12,17,15,30,9.70
2012,12,17,15,31,15.00
2012,12,17,15,32,13.80
2012,12,17,15,33,7.50
2012,12,17,15,34,10.10
2012,12,17,15,35,9.40
2012,12,17,15,36,7.40
2012,12,17,15,37,8.50
2012,12,17,15,38,11.90
2012,12,17,15,39,10.10
2012,12,17,15,40,9.90
2012,12,17,15,41,9.30
2012,12,17,15,42,13.80
2012,12,17,15,43,7.70
2012,12,17,15,44,9.30
2012,12,17,15,45,9.90
2012,12,17,15,46,8.10
2012,12,17,15,47,8.40
2012,12,17,15,48,11.30
2012,12,17,15,49,11.30
2012,12,17,15,50,8.50
2012,12,17,15,51,9.60
2012,12,17,15,52,9.20
2012,12,17,15,53,11.70
2012,12,17,15,54,12.60
2012,12,17,15,55,9.50
2012,12,17,15,56,10.80
2012,12,17,15,57,10.70
2012,12,17,15,58,13.70
2012,12,17,15,59,15.50
2012,12,17,16,00,11.10
2012,12,17,16,01,10.90
2012,12,17,16,02,13.90
2012,12,17,16,03,11.00
2012,12,17,16,04,14.00
2012,12,17,16,05,11.20
2012,12,17,16,06,11.70
2012,12,17,16,07,10.10
2012,12,17,16,08,10.90
2012,12,17,16,09,10.10
2012,12,17,16,10,15.00
2012,12,17,16,11,15.10
2012,12,17,16,12,8.50
2012,12,17,16,13,8.50
2012,12,17,16,14,16.00
2012,12,17,16,15,11.20
2012,12,17,16,16,9.40
2012,12,17,16,17,8.10
2012,12,17,16,18,6.60
2012,12,17,16,19,7.70
2012,12,17,16,20,11.20
2012,12,17,16,21,14.30
2012,12,17,16,22,9.40
2012,12,17,16,23,11.70
2012,12,17,16,24,10.20
2012,12,17,16,25,7.50
2012,12,17,16,26,8.90
2012,12,17,16,27,12.50
2012,12,17,16,28,12.00
2012,12,17,16,29,12.00
2012,12,17,16,30,6.40
2012,12,17,16,31,8.30
2012,12,17,16,32,11.30
2012,12,17,16,33,9.70
2012,12,17,16,34,6.10
2012,12,17,16,35,10.30
2012,12,17,16,36,11.30
2012,12,17,16,37,10.30
2012,12,17,16,38,6.00
2012,12,17,16,39,9.30
2012,12,17,16,40,6.40
2012,12,17,16,41,5.70
2012,12,17,16,42,3.90
2012,12,17,16,43,7.30
2012,12,17,16,44,5.00
2012,12,17,16,45,6.30
2012,12,17,16,46,9.60
2012,12,17,16,47,8.30
2012,12,17,16,48,11.60
2012,12,17,16,49,8.00
2012,12,17,16,50,6.30
2012,12,17,16,51,5.60
2012,12,17,16,52,5.00
2012,12,17,16,53,6.60
2012,12,17,16,54,8.10
2012,12,17,16,55,5.60
2012,12,17,16,56,5.70
2012,12,17,16,57,5.90
2012,12,17,16,58,6.80
2012,12,17,16,59,7.00
2012,12,17,17,00,4.70
2012,12,17,17,01,9.10
2012,12,17,17,02,12.00
2012,12,17,17,03,8.50
2012,12,17,17,04,9.70
2012,12,17,17,05,8.00
2012,12,17,17,06,8.30
2012,12,17,17,07,8.20
2012,12,17,17,08,8.10
2012,12,17,17,09,10.30
2012,12,17,17,10,9.90
2012,12,17,17,11,11.20
2012,12,17,17,12,8.70
2012,12,17,17,13,7.70
2012,12,17,17,14,8.00
2012,12,17,17,15,7.10
2012,12,17,17,16,8.50
2012,12,17,17,17,7.40
2012,12,17,17,18,6.80
2012,12,17,17,19,7.10
2012,12,17,17,20,5.10
2012,12,17,17,21,0.40
2012,12,17,17,22,3.00
2012,12,17,17,23,2.80
2012,12,17,17,24,1.40
2012,12,17,17,25,0.40
2012,12,17,17,26,0.10
2012,12,17,17,27,0.10
2012,12,17,17,28,1.50
2012,12,17,17,29,0.70
2012,12,17,17,30,0.10
2012,12,17,17,31,1.60
2012,12,17,17,32,2.60
2012,12,17,17,33,3.60
2012,12,17,17,34,4.10
2012,12,17,17,35,2.80
2012,12,17,17,36,1.00
2012,12,17,17,37,2.60
2012,12,17,17,38,2.30
2012,12,17,17,39,4.70
2012,12,17,17,40,5.20
2012,12,17,17,41,5.70
2012,12,17,17,42,3.90
2012,12,17,17,43,7.00